Hourly Data Report for December 27, 2004

TORONTO CITY
ONTARIO

43°40'00.000" N
79°24'00.000" W
112.50 m
6158355
71508
XTO

Download Data

Hourly Data (December 2004)
Hourly Data Report for December 27, 2004
TIME
LST
Temp Definition
°C
Dew Point Definition
°C
Rel Hum Definition
%
Precip. Amount Definition
mm

Wind Dir Definition
10's deg

Wind Spd Definition
km/h
Visibility Definition
km
Stn Press Definition
kPa
Hmdx Definition


Wind Chill Definition


Weather Definition


00:00 -11.8 -16.9 66   LegendMM LegendMM LegendMM 101.75     LegendNANA
01:00 -13.4 -17.1 74   LegendMM LegendMM LegendMM 101.79     LegendNANA
02:00 -14.2 -17.8 74   LegendMM LegendMM LegendMM 101.82     LegendNANA
03:00 -14.4 -17.9 75   LegendMM LegendMM LegendMM 101.89     LegendNANA
04:00 -14.7 -18.2 75   LegendMM LegendMM LegendMM 101.98     LegendNANA
05:00 -14.6 -18.3 73   LegendMM LegendMM LegendMM 102.04     LegendNANA
06:00 -14.1 -18.2 71   LegendMM LegendMM LegendMM 102.09     LegendNANA
07:00 -14.3 -18.5 70   LegendMM LegendMM LegendMM 102.20     LegendNANA
08:00 -14.5 -19.1 68   LegendMM LegendMM LegendMM 102.24     LegendNANA
09:00 -13.5 -19.1 63   LegendMM LegendMM LegendMM 102.30     LegendNANA
10:00 -11.3 -19.4 51   LegendMM LegendMM LegendMM 102.34     LegendNANA
11:00 -10.1 -19.9 45   LegendMM LegendMM LegendMM 102.38     LegendNANA
12:00 -9.8 -22.0 36   LegendMM LegendMM LegendMM 102.31     LegendNANA
13:00 -8.9 -21.5 35   LegendMM LegendMM LegendMM 102.26     LegendNANA
14:00 -8.5 -20.5 37   LegendMM LegendMM LegendMM 102.21     LegendNANA
15:00 -8.2 -17.3 48   LegendMM LegendMM LegendMM 102.22     LegendNANA
16:00 -7.9 -15.9 53   LegendMM LegendMM LegendMM 102.20     LegendNANA
17:00 -8.2 -16.1 53   LegendMM LegendMM LegendMM 102.21     LegendNANA
18:00 -9.3 -15.1 63   LegendMM LegendMM LegendMM 102.24     LegendNANA
19:00 -9.8 -15.4 64   LegendMM LegendMM LegendMM 102.22     LegendNANA
20:00 -9.9 -15.4 64   LegendMM LegendMM LegendMM 102.21     LegendNANA
21:00 -10.3 -15.2 67   LegendMM LegendMM LegendMM 102.14     LegendNANA
22:00 -10.2 -14.6 70   LegendMM LegendMM LegendMM 102.10     LegendNANA
23:00 -10.2 -14.3 72   LegendMM LegendMM LegendMM 102.06     LegendNANA

Notes on Data Quality.

Legend

  • E = Estimated
  • M = Missing
  • NA = Not Available*
  • [empty] = Indicates an unobserved value
Date modified: